Home > Weather > Andorra La Vella > Past weeks

Flag for Andorra Weather for the Past 2 Weeks in Andorra La Vella, Andorra

Now
48 °F

Light rain. Partly cloudy.


Feels Like: 41 °F
Forecast: 24 / 33 °F
Wind: 20 mph from West

Location: Carcassonne Airport

Current Time: Feb 14, 2016 at 7:56:02 AM

Latest Report: Feb 14, 2016 at 7:30 AM


Visibility: N/A

Pressure: 29.45 "Hg (25.99 "Hg at 1031m altitude)

Humidity: 82%

Dew point: 43 °F

Location of Andorra La VellaLocation

Historic Weather in Andorra La Vella — Graph

°F

Andorra La Vella Temperature Yesterday

Maximum temperature yesterday: 64 °F (at 12:30 PM)
Minimum temperature yesterday: 45 °F (at 6:00 AM)
Average temperature yesterday: 54 °F

High & Low Weather Summary for the Past Weeks

 TemperatureHumidityPressure
High66 °F (Feb 8, 2:30 PM)100% (Jan 30, 8:30 AM)30.66 "Hg (Jan 30, 8:30 AM)
Low36 °F (Feb 4, 4:30 AM)40% (Feb 8, 2:30 PM)29.36 "Hg (Feb 14, 1:30 AM)
Average50 °F80%30.07 "Hg
* Reported Jan 30 6:30 AM — Feb 14 6:30 AM, Andorra La Vella, Weather by CustomWeather, © 2016

Note: Actual official high and low records may vary slightly from our data, if they occured in-between our weather recording intervals... More about our weather records

Advertising

Andorra La Vella Weather History for the Previous 24 Hours

 ConditionsComfort  
Time TempWeatherWind HumidityBarometerVisibility
6:30 AM
Sun, Feb 14
48 °FLight rain. Partly cloudy.23 mph87%29.42 "HgN/A
6:00 AM48 °FPassing clouds.20 mph87%29.42 "HgN/A
5:30 AM50 °FLight rain. Partly cloudy.24 mph82%29.42 "HgN/A
5:00 AM52 °FPartly cloudy.29 mph72%29.39 "HgN/A
4:30 AM54 °FOvercast.25 mph67%29.39 "HgN/A
4:00 AM54 °FPassing clouds.21 mph72%29.39 "HgN/A
3:30 AM48 °FLight rain. Fog.9 mph100%29.39 "Hg3 mi
3:00 AM48 °FMostly cloudy.5 mph94%29.36 "Hg6 mi
2:30 AM46 °FLight rain. Partly cloudy.3 mph100%29.36 "Hg4 mi
2:00 AM46 °FFog.2 mph93%29.36 "Hg2 mi
1:30 AM46 °FPassing clouds.2 mph100%29.36 "Hg4 mi
1:00 AM48 °FPassing clouds.No wind94%29.39 "Hg4 mi
12:30 AM50 °FLight rain. Mostly cloudy.No wind94%29.42 "Hg6 mi
12:00 AM50 °FLight rain. Partly cloudy.6 mph94%29.42 "HgN/A
11:30 PM
Sat, Feb 13
50 °FLight rain. Overcast.5 mph94%29.45 "Hg6 mi
11:00 PM52 °FLight rain. Mostly cloudy.8 mph82%29.47 "HgN/A
10:30 PM54 °FLight rain. Mostly cloudy.14 mph77%29.47 "Hg6 mi
10:00 PM54 °FPassing clouds.6 mph72%29.45 "HgN/A
9:30 PM54 °FMostly cloudy.6 mph72%29.47 "HgN/A
9:00 PM55 °FMostly cloudy.7 mph67%29.50 "HgN/A
8:30 PM55 °FOvercast.12 mph63%29.50 "HgN/A
8:00 PM57 °FOvercast.13 mph59%29.50 "HgN/A
7:30 PM57 °FPassing clouds.13 mph63%29.50 "HgN/A
7:00 PM59 °FMostly cloudy.15 mph59%29.50 "HgN/A
6:30 PM59 °FMostly cloudy.13 mph59%29.50 "HgN/A
6:00 PM59 °FPartly sunny.15 mph59%29.50 "HgN/A
5:30 PM61 °FPassing clouds.21 mph55%29.50 "HgN/A
5:00 PM61 °FSunny.17 mph59%29.50 "Hg10 mi
4:30 PM63 °FSunny.22 mph52%29.50 "Hg10 mi
4:00 PM63 °FSunny.22 mph52%29.47 "Hg10 mi
3:30 PM64 °FSunny.21 mph49%29.47 "Hg10 mi
3:00 PM64 °FSunny.24 mph52%29.47 "Hg10 mi
2:30 PM64 °FPassing clouds.24 mph49%29.50 "HgN/A
2:00 PM64 °FPassing clouds.25 mph52%29.50 "HgN/A
1:30 PM64 °FSunny.26 mph46%29.50 "Hg10 mi
1:00 PM64 °FPassing clouds.25 mph60%29.53 "HgN/A
12:30 PM64 °FPassing clouds.26 mph60%29.53 "HgN/A
12:00 PM63 °FSunny.24 mph64%29.53 "Hg10 mi
11:30 AM63 °FPassing clouds.21 mph68%29.53 "HgN/A
11:00 AM59 °FBroken clouds.17 mph82%29.53 "HgN/A
10:30 AM54 °FCloudy.7 mph100%29.53 "HgN/A
10:00 AM52 °FLight rain. Broken clouds.10 mph100%29.53 "HgN/A
9:30 AM48 °FDrizzle. Mostly cloudy.1 mph94%29.53 "HgN/A
9:00 AM48 °FOvercast.No wind94%29.53 "Hg6 mi
8:30 AM46 °FOvercast.No wind100%29.53 "HgN/A
8:00 AM46 °FMostly cloudy.3 mph100%29.53 "HgN/A
7:30 AM46 °FLight rain. Mostly cloudy.No wind93%29.53 "Hg4 mi
7:00 AM46 °FLight rain. Partly cloudy.No wind93%29.50 "Hg6 mi
Weather by CustomWeather, © 2016

See weather overviewHow to use our weather pages